Location: Natural Bridges National Monument
(37.6093°N, 109.9767°W)
Time: 04:53:27
(UTC-06:00)

Amateur Radio Satellites - All Passes

Search period start: 03 September 2015 04:23
Search period end: 04 September 2015 04:23
Location: Natural Bridges National Monument, 37.6093°N, 109.9767°W

Satellite Date Start Highest point End Downlink Frequencies (MHz)
Time Altitude Azimuth
O/OREOS (USA 219) 03 Sep 04:23:42 04:27:28 25° 60° (ENE) 04:31:16 437.305
RS-15 03 Sep 04:37:42 04:43:55 15° 260° (W) 04:49:00 29.354- 29.394
HORYU 2 03 Sep 04:56:43 05:00:56 41° 98° (E) 05:05:08 437.375
AO-7 03 Sep 05:01:33 05:09:38 55° 102° (ESE) 05:17:44 29.400- 29.500
STARS 03 Sep 05:04:32 05:07:43 19° 267° (W) 05:10:47 437.465
PHONESAT 2.4 03 Sep 05:13:19 05:16:36 45° 155° (SSE) 05:19:53 2401.200-2431.200
Cosmos 2499 03 Sep 05:18:32 05:26:59 70° 280° (W) 05:35:52 435.465 / 435.565
VERMONT LUNAR 03 Sep 05:19:16 05:22:09 44° 358° (N) 05:25:01 437.305
JAS-2 03 Sep 05:21:01 05:27:13 37° 293° (WNW) 05:32:41 435.910
MOZHAYETS 4 03 Sep 06:00:18 06:03:52 21° 267° (W) 06:07:19
O/OREOS (USA 219) 03 Sep 06:02:53 06:06:54 29° 256° (WSW) 06:10:48 437.305
CUBESAT XI-V 03 Sep 06:23:00 06:27:28 54° 74° (ENE) 06:31:59 437.345
HORYU 2 03 Sep 06:34:20 06:37:16 17° 293° (WNW) 06:40:03 437.375
CUTE-I 03 Sep 06:46:06 06:50:11 23° 93° (E) 06:54:24 437.470
PHONESAT 2.4 03 Sep 06:51:05 06:54:28 58° 350° (N) 06:57:50 2401.200-2431.200
AO-7 03 Sep 06:54:58 07:02:06 32° 299° (WNW) 07:09:02 29.400- 29.500
VERMONT LUNAR 03 Sep 06:55:46 06:58:44 75° 15° (NNE) 07:01:42 437.305
STRAND 1 03 Sep 07:15:44 07:20:39 53° 73° (ENE) 07:25:38 437.568
PRISM 03 Sep 07:17:27 07:21:06 33° 72° (ENE) 07:24:49 437.425
Cosmos 2499 03 Sep 07:18:16 07:22:13 13° 303° (WNW) 07:25:31 435.465 / 435.565
Cubesat XI-IV 03 Sep 07:41:00 07:46:21 79° 103° (ESE) 07:51:42 437.490
YUBILEINY 03 Sep 07:46:39 07:54:18 33° 71° (ENE) 08:02:05 435.215
AIST 1 03 Sep 07:47:05 07:50:29 25° 90° (E) 07:54:00
CUBESAT XI-V 03 Sep 08:03:09 08:05:19 13° 271° (W) 08:07:13 437.345
BRITE-PL 03 Sep 08:10:59 08:15:57 32° 95° (E) 08:21:02 437.365/2234.400
CUTE-I 03 Sep 08:25:27 08:30:26 40° 289° (WNW) 08:35:22 437.470
ISS 03 Sep 08:25:39 08:28:54 89° 158° (SSE) 08:32:10 145.825
GOMX 1 03 Sep 08:26:34 08:31:05 26° 93° (E) 08:35:40 467.674
DOVE 4 03 Sep 08:28:05 08:31:04 16° 89° (E) 08:34:16 437.250
PHONESAT 2.4 03 Sep 08:29:13 08:32:34 55° 7° (N) 08:35:56 2401.200-2431.200
VERMONT LUNAR 03 Sep 08:32:31 08:34:57 23° 210° (SSW) 08:37:22 437.305
Cosmos 2491 03 Sep 08:33:17 08:40:42 34° 87° (E) 08:48:19 435.465 / 435.565
PRISM 03 Sep 08:53:56 08:56:39 17° 267° (W) 08:59:15 437.425
CINEMA 3 03 Sep 08:55:22 08:56:19 11° 86° (E) 08:57:37 145.822/145.860
STRAND 1 03 Sep 08:57:02 09:00:15 16° 269° (W) 09:03:16 437.568
HO-68 03 Sep 09:09:02 09:15:22 34° 96° (E) 09:21:48 435.675
Cubesat XI-IV 03 Sep 09:23:26 09:25:52 13° 297° (WNW) 09:28:02 437.490
AIST 1 03 Sep 09:24:43 09:28:07 22° 286° (WNW) 09:31:25
SO-50 03 Sep 09:36:32 09:41:11 39° 52° (NE) 09:45:43 436.795
DANDE 03 Sep 09:41:08 09:42:06 10° 58° (ENE) 09:43:49 436.750
ANTELSAT 03 Sep 09:42:44 09:43:44 11° 64° (ENE) 09:45:02 437.575/2403.000
YUBILEINY 03 Sep 09:43:01 09:51:29 51° 270° (W) 09:59:47 435.215
CUTE 1.7 + AOD 2 03 Sep 09:43:52 09:48:03 59° 100° (E) 09:52:11 437.475
BRITE-PL 03 Sep 09:49:24 09:54:24 33° 289° (WNW) 09:59:24 437.365/2234.400
Cosmos 2504 03 Sep 09:57:27 10:04:27 29° 69° (ENE) 10:11:17 435.465 / 435.565
CANX-2 03 Sep 09:58:18 10:02:32 81° 283° (WNW) 10:06:44 2200.000
CUBEBUG 2 03 Sep 10:01:37 10:05:18 24° 93° (E) 10:09:00 437.445
UWE-3 03 Sep 10:03:04 10:06:11 19° 91° (E) 10:09:22 435.000/436.395/437.385
ISS 03 Sep 10:03:45 10:05:43 15° 337° (NNW) 10:07:40 145.825
DOVE 4 03 Sep 10:04:01 10:09:15 60° 286° (WNW) 10:14:23 437.250
GOMX 1 03 Sep 10:04:11 10:09:15 38° 289° (WNW) 10:14:15 467.674
PHONESAT 2.4 03 Sep 10:07:09 10:10:29 53° 204° (SSW) 10:13:48 2401.200-2431.200
SEEDS 03 Sep 10:14:44 10:18:55 74° 284° (WNW) 10:23:03 437.485
Cosmos 2491 03 Sep 10:29:00 10:37:21 48° 284° (WNW) 10:45:39 435.465 / 435.565
CINEMA 3 03 Sep 10:29:12 10:34:11 73° 284° (WNW) 10:38:58 145.822/145.860
UNISAT 6 03 Sep 10:30:05 10:34:18 34° 71° (ENE) 10:38:35 437.425
CUSAT 1 03 Sep 10:31:07 10:38:21 37° 72° (ENE) 10:45:49 437.405
COMPASS 1 03 Sep 10:31:59 10:36:04 59° 285° (WNW) 10:40:07 437.405
Oscar 11 03 Sep 10:35:41 10:39:52 50° 99° (E) 10:44:03 145.826/435.025
AUBIESAT-1 03 Sep 10:36:59 10:41:23 40° 68° (ENE) 10:45:44 437.475
AAUSAT CUBESAT 2 03 Sep 10:39:41 10:43:45 57° 285° (WNW) 10:47:47 437.432
DELFI C3 03 Sep 10:43:46 10:47:29 37° 98° (E) 10:51:12 145.870
M-CUBED/EXP-1 PRIME 03 Sep 10:44:47 10:49:29 58° 70° (ENE) 10:54:07 437.505
PCSat 03 Sep 10:47:17 10:52:25 42° 56° (NE) 10:57:33 145.827
HO-68 03 Sep 10:56:28 11:03:13 44° 293° (WNW) 11:09:52 435.675
TIGRISAT 03 Sep 10:56:58 11:01:36 65° 76° (ENE) 11:06:17 435.000
BUGSAT 1 03 Sep 11:02:34 11:04:40 14° 67° (ENE) 11:06:59 437.445
DUCHIFAT 1 03 Sep 11:06:05 11:09:35 26° 71° (ENE) 11:13:11 145.980
POLYITAN 1 03 Sep 11:06:39 11:10:18 29° 71° (ENE) 11:14:03 437.675
POPSAT HIP 1 03 Sep 11:08:06 11:11:44 29° 71° (ENE) 11:15:28 437.405
ANTELSAT 03 Sep 11:15:14 11:19:56 77° 258° (WSW) 11:24:40 437.575/2403.000
SO-50 03 Sep 11:17:36 11:21:31 23° 249° (WSW) 11:25:13 436.795
DANDE 03 Sep 11:19:08 11:26:53 57° 77° (ENE) 11:35:16 436.750
CUTE 1.7 + AOD 2 03 Sep 11:22:14 11:23:29 11° 294° (WNW) 11:24:30 437.475
NANOSAT C BR1 03 Sep 11:24:06 11:28:07 43° 73° (ENE) 11:32:12 145.865
ZACube-1 03 Sep 11:25:02 11:29:29 68° 284° (WNW) 11:33:48 437.345
QB50P2 03 Sep 11:25:20 11:29:25 48° 74° (ENE) 11:33:34 145.880/145.840
FUNcube-1 03 Sep 11:29:06 11:33:31 63° 285° (WNW) 11:37:48 145.935
VELOX 1 03 Sep 11:34:22 11:37:24 18° 93° (E) 11:40:34 145.980
CUBEBUG 2 03 Sep 11:37:56 11:42:00 29° 290° (WNW) 11:45:52 437.445
UWE-3 03 Sep 11:38:41 11:42:52 36° 288° (WNW) 11:46:54 435.000/436.395/437.385
QB50P1 03 Sep 11:38:48 11:43:01 68° 76° (ENE) 11:47:16 145.935-145.965
HUMSAT D 03 Sep 11:46:13 11:50:27 79° 101° (ESE) 11:54:36 437.325/437.525
PHONESAT 2.4 03 Sep 11:47:08 11:47:55 10° 216° (SW) 11:48:34 2401.200-2431.200
Cosmos 2504 03 Sep 11:49:01 11:57:09 54° 270° (W) 12:04:42 435.465 / 435.565
UNISAT 6 03 Sep 12:07:29 12:11:09 22° 267° (W) 12:14:43 437.425
DX 1 03 Sep 12:08:27 12:12:51 73° 102° (ESE) 12:17:13 434.975-435.025
AUBIESAT-1 03 Sep 12:12:36 12:16:10 20° 262° (W) 12:19:34 437.475
CUSAT 1 03 Sep 12:13:23 12:21:04 49° 268° (W) 12:28:43 437.405
Oscar 11 03 Sep 12:13:29 12:15:40 13° 293° (WNW) 12:17:39 145.826/435.025
UKube-1 03 Sep 12:16:27 12:20:49 81° 102° (ESE) 12:25:09 .
DELFI C3 03 Sep 12:19:56 12:22:15 15° 292° (WNW) 12:24:24 145.870
M-CUBED/EXP-1 PRIME 03 Sep 12:21:50 12:24:33 14° 265° (W) 12:27:02 437.505
PCSat 03 Sep 12:31:15 12:35:37 24° 252° (WSW) 12:39:50 145.827
JUGNU 03 Sep 12:32:36 12:34:10 11° 171° (S) 12:35:49 437.505
CUBEBUG 1 03 Sep 12:33:50 12:38:10 53° 100° (E) 12:42:31 437.445
BUGSAT 1 03 Sep 12:35:56 12:39:48 42° 262° (W) 12:43:43 437.445
GONETS M04 03 Sep 12:36:18 12:40:25 14° 60° (ENE) 12:45:10
50 SAT 03 Sep 12:36:31 12:40:20 60° 285° (WNW) 12:44:05 437.505
Oscar 19 03 Sep 12:37:12 12:39:31 14° 63° (ENE) 12:42:07 437.125/150
TIGRISAT 03 Sep 12:37:14 12:38:51 11° 272° (W) 12:40:11 435.000
ESTCUBE 1 03 Sep 12:39:51 12:44:22 77° 102° (ESE) 12:48:52 437.505/2401.250
DUCHIFAT 1 03 Sep 12:41:55 12:45:22 23° 266° (W) 12:48:43 145.980
AISAT 03 Sep 12:42:20 12:46:50 72° 284° (WNW) 12:51:17 437.250
POLYITAN 1 03 Sep 12:42:53 12:46:14 21° 266° (W) 12:49:30 437.675
POPSAT HIP 1 03 Sep 12:44:20 12:47:38 21° 266° (W) 12:50:51 437.405
NANOSAT C BR1 03 Sep 13:01:55 13:04:13 14° 269° (W) 13:06:20 145.865
DANDE 03 Sep 13:02:51 13:09:47 32° 270° (W) 13:16:52 436.750
QB50P2 03 Sep 13:03:37 13:05:39 13° 270° (W) 13:07:27 145.880/145.840
VELOX 1 03 Sep 13:09:58 13:14:06 37° 288° (WNW) 13:18:11 145.980
TISAT 1 03 Sep 13:10:57 13:14:13 22° 94° (E) 13:17:35 437.305
ISS 03 Sep 13:20:02 13:20:59 11° 17° (NNE) 13:22:00 145.825
Gurwin Techsat 1B 03 Sep 13:40:49 13:44:07 17° 65° (ENE) 13:47:37 435.225
ITAMSAT 1 03 Sep 13:42:21 13:44:52 14° 64° (ENE) 13:47:38 435.822/435.867
JAS-2 03 Sep 13:46:47 13:51:06 17° 59° (ENE) 13:55:50 435.910
SPROUT 03 Sep 13:53:46 13:58:04 62° 285° (WNW) 14:02:20 437.525
BEESAT 3 03 Sep 13:58:17 14:01:20 21° 112° (ESE) 14:04:29 437.485
AO-7 03 Sep 14:11:49 14:14:54 13° 50° (NE) 14:18:29 29.400- 29.500
CUBEBUG 1 03 Sep 14:11:51 14:14:08 14° 294° (WNW) 14:16:11 437.445
SWISSCUBE 03 Sep 14:12:39 14:15:58 19° 93° (E) 14:19:26 437.505
Oscar 19 03 Sep 14:13:10 14:18:19 72° 258° (WSW) 14:23:32 437.125/150
BEESAT 2 03 Sep 14:14:38 14:17:54 24° 113° (ESE) 14:21:16 435.950
JUGNU 03 Sep 14:19:37 14:22:22 13° 181° (S) 14:25:05 437.505
GONETS M04 03 Sep 14:30:10 14:39:02 79° 82° (E) 14:47:53
RS-15 03 Sep 14:34:28 14:41:16 20° 102° (ESE) 14:48:56 29.354- 29.394
TISAT 1 03 Sep 14:46:17 14:49:59 28° 289° (WNW) 14:53:36 437.305
ITUPSAT 1 03 Sep 14:51:45 14:56:19 45° 99° (E) 15:00:53 437.325
ISS 03 Sep 14:54:55 14:58:04 47° 35° (NE) 15:01:13 145.825
AIST 2 03 Sep 15:11:58 15:14:58 20° 112° (ESE) 15:18:06 435.215
Cosmos 2499 03 Sep 15:13:05 15:20:59 40° 73° (ENE) 15:28:28 435.465 / 435.565
Gurwin Techsat 1B 03 Sep 15:18:28 15:23:41 57° 260° (W) 15:28:56 435.225
ITAMSAT 1 03 Sep 15:18:43 15:23:52 68° 258° (WSW) 15:29:02 435.822/435.867
BEESAT 03 Sep 15:22:52 15:27:38 82° 284° (WNW) 15:32:23 436.000
JAS-2 03 Sep 15:27:25 15:35:07 81° 75° (ENE) 15:43:00 435.910
SRMSAT 03 Sep 15:35:20 15:37:58 13° 178° (S) 15:40:39 437.500
BEESAT 3 03 Sep 15:35:27 15:39:06 30° 308° (NW) 15:42:44 437.485
KKS-1 03 Sep 15:45:06 15:48:51 26° 95° (E) 15:52:37 437.445
SWISSCUBE 03 Sep 15:49:34 15:54:00 39° 288° (WNW) 15:58:24 437.505
BEESAT 2 03 Sep 15:52:16 15:55:51 28° 308° (NW) 15:59:24 435.950
HORYU 2 03 Sep 15:53:09 15:57:05 31° 71° (ENE) 16:01:04 437.375
AO-7 03 Sep 15:58:06 16:06:16 63° 68° (ENE) 16:14:29 29.400- 29.500
GONETS M04 03 Sep 16:29:04 16:35:00 19° 278° (W) 16:40:28
ITUPSAT 1 03 Sep 16:30:38 16:33:54 18° 293° (WNW) 16:36:59 437.325
ISS 03 Sep 16:32:16 16:34:14 15° 230° (SW) 16:36:05 145.825
RS-15 03 Sep 16:41:24 16:52:19 88° 297° (WNW) 17:03:45 29.354- 29.394
AIST 2 03 Sep 16:49:23 16:53:19 36° 306° (NW) 16:57:15 435.215
STARS 03 Sep 16:54:28 16:58:56 88° 283° (WNW) 17:03:22 437.465
Cosmos 2499 03 Sep 17:06:21 17:14:08 39° 273° (W) 17:21:16 435.465 / 435.565
JAS-2 03 Sep 17:15:36 17:21:00 19° 273° (W) 17:26:03 435.910
KKS-1 03 Sep 17:21:38 17:25:25 26° 290° (WNW) 17:29:06 437.445
SRMSAT 03 Sep 17:24:23 17:26:19 12° 188° (S) 17:28:10 437.500
Cubesat XI-IV 03 Sep 17:24:46 17:26:58 13° 63° (ENE) 17:29:27 437.490
HORYU 2 03 Sep 17:30:11 17:33:45 22° 266° (W) 17:37:12 437.375
AO-7 03 Sep 17:52:48 17:59:39 26° 266° (W) 18:06:12 29.400- 29.500
MOZHAYETS 4 03 Sep 17:55:56 18:00:31 78° 283° (WNW) 18:05:04
CUTE-I 03 Sep 18:06:01 18:10:37 32° 69° (ENE) 18:15:19 437.470
CUBESAT XI-V 03 Sep 18:22:44 18:25:30 16° 91° (E) 18:28:28 437.345
O/OREOS (USA 219) 03 Sep 18:33:37 18:37:48 39° 105° (ESE) 18:42:05 437.305
Cosmos 2491 03 Sep 18:47:09 18:51:12 14° 60° (ENE) 18:55:54 435.465 / 435.565
RS-15 03 Sep 18:57:24 19:06:39 28° 327° (NNW) 19:15:59 29.354- 29.394
Cubesat XI-IV 03 Sep 19:01:10 19:06:30 78° 257° (WSW) 19:11:50 437.490
BRITE-PL 03 Sep 19:20:54 19:24:26 24° 68° (ENE) 19:28:17 437.365/2234.400
STRAND 1 03 Sep 19:28:58 19:32:40 21° 93° (E) 19:36:32 437.568
AIST 1 03 Sep 19:32:29 19:36:49 70° 82° (E) 19:41:10
DOVE 4 03 Sep 19:33:10 19:34:48 12° 63° (ENE) 19:36:44 437.250
GOMX 1 03 Sep 19:33:37 19:36:53 20° 67° (ENE) 19:40:28 467.674
HO-68 03 Sep 19:36:56 19:41:57 22° 60° (ENE) 19:47:14 435.675
CUTE-I 03 Sep 19:46:04 19:50:43 29° 265° (W) 19:55:15 437.470
CUBESAT XI-V 03 Sep 19:58:46 20:03:12 45° 287° (WNW) 20:07:38 437.345
O/OREOS (USA 219) 03 Sep 20:14:07 20:17:26 19° 303° (WNW) 20:20:40 437.305
CUTE 1.7 + AOD 2 03 Sep 20:34:50 20:38:40 33° 72° (ENE) 20:42:32 437.475
PRISM 03 Sep 20:36:06 20:40:14 74° 103° (ESE) 20:44:20 437.425
Cosmos 2491 03 Sep 20:41:02 20:49:50 79° 82° (E) 20:58:39 435.465 / 435.565
YUBILEINY 03 Sep 20:45:04 20:52:55 40° 88° (E) 21:00:59 435.215
CANX-2 03 Sep 20:48:59 20:53:10 55° 75° (ENE) 20:57:21 2200.000
CUBEBUG 2 03 Sep 20:58:20 21:01:23 18° 67° (ENE) 21:04:38 437.445
BRITE-PL 03 Sep 20:59:01 21:02:52 28° 266° (W) 21:06:55 437.365/2234.400
UWE-3 03 Sep 20:59:10 21:01:25 14° 66° (ENE) 21:03:54 435.000/436.395/437.385
SEEDS 03 Sep 21:04:27 21:08:37 58° 75° (ENE) 21:12:48 437.485
DOVE 4 03 Sep 21:07:16 21:11:54 72° 260° (W) 21:16:51 437.250
STRAND 1 03 Sep 21:07:17 21:12:05 42° 289° (WNW) 21:16:51 437.568
GOMX 1 03 Sep 21:10:28 21:14:44 38° 264° (W) 21:19:16 467.674
RS-15 03 Sep 21:18:18 21:24:41 16° 1° (N) 21:31:16 29.354- 29.394
COMPASS 1 03 Sep 21:20:43 21:24:55 70° 77° (ENE) 21:29:07 437.405
HO-68 03 Sep 21:21:57 21:29:05 71° 257° (WSW) 21:36:17 435.675
AAUSAT CUBESAT 2 03 Sep 21:27:58 21:32:07 71° 76° (ENE) 21:36:18 437.432
CINEMA 3 03 Sep 21:28:18 21:33:00 82° 78° (ENE) 21:37:58 145.822/145.860
Oscar 11 03 Sep 21:28:42 21:32:29 31° 72° (ENE) 21:36:20 145.826/435.025
DELFI C3 03 Sep 21:29:38 21:32:26 19° 70° (ENE) 21:35:20 145.870
CUTE 1.7 + AOD 2 03 Sep 22:11:35 22:14:40 19° 268° (W) 22:17:37 437.475
ZACube-1 03 Sep 22:18:20 22:22:52 74° 76° (ENE) 22:27:29 437.345
FUNcube-1 03 Sep 22:22:08 22:26:40 79° 78° (ENE) 22:31:17 145.935
Cosmos 2504 03 Sep 22:25:57 22:31:44 23° 82° (E) 22:38:06 435.465 / 435.565
CANX-2 03 Sep 22:28:04 22:29:29 11° 271° (W) 22:30:37 2200.000
VELOX 1 03 Sep 22:31:15 22:33:20 14° 66° (ENE) 22:35:39 145.980
UWE-3 03 Sep 22:32:55 22:37:28 58° 260° (W) 22:42:06 435.000/436.395/437.385
CUBEBUG 2 03 Sep 22:33:16 22:37:43 44° 262° (W) 22:42:16 437.445
HUMSAT D 03 Sep 22:35:41 22:39:44 42° 73° (ENE) 22:43:51 437.325/437.525
BEESAT 2 03 Sep 22:36:54 22:37:40 11° 42° (NE) 22:38:38 435.950
Cosmos 2491 03 Sep 22:39:57 22:45:50 19° 278° (W) 22:51:12 435.465 / 435.565
YUBILEINY 03 Sep 22:41:30 22:49:45 42° 286° (WNW) 22:57:55 435.215
SEEDS 03 Sep 22:44:08 22:44:50 10° 271° (W) 22:45:15 437.485
TIGRISAT 03 Sep 22:52:18 22:54:50 15° 90° (E) 22:57:33 435.000
DX 1 03 Sep 23:02:05 23:06:13 48° 73° (ENE) 23:10:26 434.975-435.025
DELFI C3 03 Sep 23:03:43 23:07:18 29° 264° (W) 23:10:51 145.870
Oscar 11 03 Sep 23:05:23 23:08:44 21° 267° (W) 23:11:57 145.826/435.025
UKube-1 03 Sep 23:09:11 23:13:21 52° 74° (ENE) 23:17:35 .
ANTELSAT 03 Sep 23:09:57 23:13:40 25° 94° (E) 23:17:22 437.575/2403.000
50 SAT 03 Sep 23:17:32 23:21:23 51° 74° (ENE) 23:25:13 437.505
QB50P1 03 Sep 23:27:37 23:29:28 13° 90° (E) 23:31:32 145.935-145.965
CUBEBUG 1 03 Sep 23:28:14 23:32:07 34° 72° (ENE) 23:36:04 437.445
RS-15 03 Sep 23:32:51 23:42:39 30° 35° (NE) 23:53:04 29.354- 29.394
CUSAT 1 03 Sep 23:36:54 23:40:13 24° 86° (E) 23:44:28 437.405
ESTCUBE 1 03 Sep 23:37:27 23:41:50 55° 74° (ENE) 23:46:13 437.505/2401.250
AISAT 03 Sep 23:37:52 23:42:16 80° 76° (ENE) 23:46:43 437.250
SO-50 03 Sep 23:50:06 23:53:23 19° 110° (ESE) 23:56:54 436.795
AUBIESAT-1 03 Sep 23:54:30 23:57:54 33° 101° (E) 00:01:07 437.475
BEESAT 3 03 Sep 23:54:59 23:59:01 86° 58° (ENE) 00:02:59 437.485
UNISAT 6 04 Sep 00:00:14 00:04:48 85° 283° (WNW) 00:09:12 437.425
TISAT 1 04 Sep 00:02:27 00:04:28 14° 67° (ENE) 00:06:40 437.305
M-CUBED/EXP-1 PRIME 04 Sep 00:03:04 00:06:50 54° 104° (ESE) 00:10:17 437.505
VELOX 1 04 Sep 00:05:12 00:09:29 52° 260° (W) 00:13:49 145.980
BEESAT 2 04 Sep 00:12:16 00:16:21 83° 238° (WSW) 00:20:19 435.950
HUMSAT D 04 Sep 00:13:07 00:15:43 15° 269° (W) 00:18:07 437.325/437.525
Cosmos 2504 04 Sep 00:15:04 00:23:12 69° 280° (W) 00:31:47 435.465 / 435.565
BUGSAT 1 04 Sep 00:19:52 00:23:39 30° 96° (E) 00:27:27 437.445
DUCHIFAT 1 04 Sep 00:27:21 00:31:37 63° 101° (ESE) 00:35:50 145.980
TIGRISAT 04 Sep 00:27:34 00:31:53 43° 287° (WNW) 00:36:03 435.000
POLYITAN 1 04 Sep 00:28:54 00:33:13 71° 101° (E) 00:37:29 437.675
DANDE 04 Sep 00:29:53 00:33:21 53° 94° (E) 00:38:02 436.750
POPSAT HIP 1 04 Sep 00:30:05 00:34:23 71° 101° (ESE) 00:38:38 437.405
DX 1 04 Sep 00:40:39 00:42:48 13° 269° (W) 00:44:45 434.975-435.025
SPROUT 04 Sep 00:45:34 00:49:51 78° 77° (ENE) 00:54:10 437.525
NANOSAT C BR1 04 Sep 00:46:10 00:50:28 75° 284° (WNW) 00:54:44 145.865
ANTELSAT 04 Sep 00:46:35 00:50:24 26° 290° (WNW) 00:54:02 437.575/2403.000
QB50P2 04 Sep 00:48:00 00:52:18 67° 284° (WNW) 00:56:32 145.880/145.840
UKube-1 04 Sep 00:48:04 00:49:51 12° 270° (W) 00:51:24 .
QB50P1 04 Sep 01:01:30 01:05:39 48° 286° (WNW) 01:09:45 145.935-145.965
CUBEBUG 1 04 Sep 01:05:31 01:08:36 18° 268° (W) 01:11:33 437.445
AIST 2 04 Sep 01:12:24 01:16:36 82° 60° (ENE) 01:20:41 435.215
ESTCUBE 1 04 Sep 01:17:13 01:19:06 12° 270° (W) 01:20:44 437.505/2401.250
SWISSCUBE 04 Sep 01:17:48 01:21:01 19° 67° (ENE) 01:24:24 437.505
CUSAT 1 04 Sep 01:19:02 01:22:40 26° 293° (WNW) 01:27:08 437.405
PCSat 04 Sep 01:26:45 01:32:00 57° 113° (ESE) 01:37:20 145.827
SO-50 04 Sep 01:29:00 01:33:37 46° 306° (NW) 01:38:21 436.795
AUBIESAT-1 04 Sep 01:30:10 01:32:20 15° 298° (WNW) 01:34:19 437.475
TISAT 1 04 Sep 01:35:46 01:39:50 47° 261° (W) 01:43:57 437.305
GONETS M04 04 Sep 01:36:25 01:41:10 17° 81° (E) 01:46:30
RS-15 04 Sep 01:44:59 01:56:59 90° 222° (SW) 02:09:18 29.354- 29.394
BUGSAT 1 04 Sep 01:55:42 01:58:56 21° 291° (WNW) 02:02:03 437.445
ITUPSAT 1 04 Sep 01:56:41 02:01:09 42° 72° (ENE) 02:05:40 437.325
DUCHIFAT 1 04 Sep 02:05:44 02:06:55 11° 295° (WNW) 02:07:51 145.980
Cosmos 2504 04 Sep 02:13:59 02:17:26 12° 302° (WNW) 02:20:15 435.465 / 435.565
DANDE 04 Sep 02:16:51 02:17:32 10° 303° (WNW) 02:17:58 436.750
Oscar 19 04 Sep 02:26:47 02:31:47 47° 99° (E) 02:36:46 437.125/150
BEESAT 04 Sep 02:27:13 02:32:00 89° 277° (W) 02:36:47 436.000
VERMONT LUNAR 04 Sep 02:35:49 02:38:43 47° 156° (SSE) 02:41:38 437.305
KKS-1 04 Sep 02:41:58 02:45:07 20° 68° (ENE) 02:48:24 437.445
JAS-2 04 Sep 02:45:04 02:45:58 10° 81° (E) 02:47:25 435.910
SWISSCUBE 04 Sep 02:54:04 02:58:36 42° 262° (W) 03:03:06 437.505
PCSat 04 Sep 03:11:46 03:15:51 21° 312° (NW) 03:19:49 145.827
GONETS M04 04 Sep 03:28:20 03:37:01 85° 276° (W) 03:45:49
ITAMSAT 1 04 Sep 03:33:31 03:38:32 50° 99° (E) 03:43:35 435.822/435.867
ITUPSAT 1 04 Sep 03:35:57 03:39:16 18° 268° (W) 03:42:26 437.325
Gurwin Techsat 1B 04 Sep 03:36:29 03:41:48 68° 101° (ESE) 03:47:05 435.225
Cosmos 2499 04 Sep 03:46:25 03:53:45 35° 86° (E) 04:01:34 435.465 / 435.565
STARS 04 Sep 03:49:08 03:53:29 63° 75° (ENE) 03:57:54 437.465
RS-15 04 Sep 03:59:40 04:08:18 22° 257° (WSW) 04:16:15 29.354- 29.394
AO-7 04 Sep 04:03:10 04:09:02 22° 92° (E) 04:15:15 29.400- 29.500
Oscar 19 04 Sep 04:07:03 04:10:49 20° 294° (WNW) 04:14:25 437.125/150
VERMONT LUNAR 04 Sep 04:12:12 04:15:08 51° 352° (N) 04:18:03 437.305
